Find Starlink 3230

NORAD ID: 50845 Int'l Des: 2022-001 Owner: SPXS Country: US Constellation: starlink operational
LEOCIRCULAR

Current View

Loading 3D Globe...

About Starlink 3230

Description loading...

Upcoming Passes

Passes for default location (London). Set your location on the main map for personalized predictions.

Altitude History

Loading altitude history...

Two-Line Element Set

1 50845U 22001AU 26150.38318966 -.00000330 00000-0 -26286-5 0 9992
2 50845 53.1982 172.3744 0001230 75.9561 284.1567 15.08833507242606
Epoch: May 30, 2026 • Age: 26 hours

Current Status

Altitude 553.6 km
Velocity 7.58 km/s
Sub-Earth Point -39.79°S, 38.17°W
Launch Date Jan 6, 2022
Age 4.3 years
Type internet

Technical Details

Classification Payload
Mass 297.00 kg
Dry Mass 275.00 kg
Total Mass 297.00 kg
Length 0.20 m
Diameter 2.80 m
Span 9.00 m
Shape Box + pan
Manufacturer SPXS
Bus Type Starlink
Phase Status In Orbit
Owner/State SPXS/US

Most Searched